Zurück zum Katalog

STARLINK-32233

AktivKommunikationVLEO
NORAD 60434·PAYLOAD·🇺🇸 United States

Gestartet Aug 12, 2024 von Cape Canaveral Space Force Station

Loading…

Nächste Überflüge (nächste 24 Stunden)

TLE

AktuellSource: CelesTrak SupGP

Epoche: Sep 14, 2026, 20:44 UTC

1 60434C 24144K   26257.86437500  .00036852  00000+0  10891-2 0  2578
2 60434  53.1589  54.3098 0001284  82.5576 176.6863 15.34362482    13

Verfolge STARLINK-32233 in Echtzeit mit AllMySat

Download on the App Store